Mount Holly, NJ

2:10 AM EST on November 15, 2019 (GMT -0500)
South Jersey Regional

Weather History for KVAY - September, 2019

Change the Weather History Date:

Saturday, September 14, 2019

  Actual Average (WUND) Record (WUND)
Temperature  
Mean Temperature 66 °F -  
Max Temperature 78 °F - - (-1)
Min Temperature 55 °F - - (-1)
Cooling Degree Days 2    
Growing Degree Days 16 (Base 50)    
Moisture  
Dew Point 62 °F    
Average Humidity 79    
Maximum Humidity 93    
Minimum Humidity 66    
Precipitation  
Precipitation 0.00 in - - ()
Sea Level Pressure  
Sea Level Pressure 30.26 in    
Wind  
Wind Speed 2 mph (SSE)    
Max Wind Speed 6 mph    
Max Gust Speed -    
Visibility 10 miles    
Events      
Averages and records for this station are not official NWS values.
T = Trace of Precipitation, MM = Missing Value Source: NWS Daily Summary

Daily Weather History Graph

Daily Weather History Graph

Search for Another Location

Airport or City:

Astronomy

Sep. 14, 2019 Rise Set
Actual Time 6:39 AM EDT 7:10 PM EDT
Civil Twilight 6:12 AM EDT 7:37 PM EDT
Nautical Twilight 5:39 AM EDT 8:09 PM EDT
Astronomical Twilight 5:07 AM EDT 8:42 PM EDT
Moon 7:50 PM EDT (9/14) 6:50 AM EDT (9/14)
Length of Visible Light 13h 25m
Length of Day
12h 30m
Full, 100% of the Moon is Illuminated
Sep 14
Full
Sep 21
Last Quarter
Sep 28
New
Oct 5
First Quarter
Oct 13
Full

Hourly Weather History & Observations

Time (EDT) Temp. Dew Point Humidity Pressure Visibility Wind Dir Wind Speed Gust Speed Precip Events Conditions
12:54 AM 57.0 °F 54.0 °F 89% 30.38 in 10.0 mi Calm Calm - N/A   Clear
1:54 AM 57.9 °F 54.0 °F 87% 30.36 in 10.0 mi Calm Calm - N/A   Partly Cloudy
2:54 AM 55.9 °F 54.0 °F 93% 30.34 in 10.0 mi Calm Calm - N/A   Clear
3:54 AM 57.0 °F 54.0 °F 89% 30.33 in 10.0 mi Calm Calm - N/A   Scattered Clouds
4:54 AM 55.9 °F 53.1 °F 90% 30.32 in 10.0 mi Calm Calm - N/A   Partly Cloudy
5:54 AM 55.9 °F 54.0 °F 93% 30.33 in 10.0 mi Calm Calm - N/A   Unknown
6:54 AM 55.9 °F 54.0 °F 93% 30.32 in 10.0 mi Calm Calm - N/A   Clear
7:54 AM 61.0 °F 57.0 °F 87% 30.32 in 10.0 mi Calm Calm - N/A   Clear
8:54 AM 68.0 °F 60.1 °F 76% 30.32 in 10.0 mi Variable 3.5 mph - N/A   Overcast
9:54 AM 73.0 °F 62.1 °F 68% 30.32 in 10.0 mi SSE 5.8 mph - N/A   Partly Cloudy
10:54 AM 73.9 °F 63.0 °F 68% 30.31 in 10.0 mi Variable 4.6 mph - N/A   Overcast
11:54 AM 73.9 °F 63.0 °F 68% 30.28 in 10.0 mi Variable 3.5 mph - N/A   Overcast
12:54 PM 75.0 °F 64.0 °F 69% 30.27 in 10.0 mi Variable 5.8 mph - N/A   Overcast
1:54 PM 75.9 °F 64.9 °F 69% 30.23 in 10.0 mi Variable 5.8 mph - N/A   Overcast
2:34 PM 75.0 °F 64.9 °F 71% 30.22 in 10.0 mi Variable 5.8 mph - N/A   Overcast
2:54 PM 77.0 °F 66.0 °F 69% 30.21 in 10.0 mi Variable 4.6 mph - N/A   Overcast
3:54 PM 77.0 °F 66.0 °F 69% 30.19 in 10.0 mi Variable 3.5 mph - N/A   Overcast
4:54 PM 77.0 °F 66.0 °F 69% 30.18 in 10.0 mi Variable 4.6 mph - N/A   Overcast
5:54 PM 78.1 °F 66.0 °F 66% 30.17 in 10.0 mi Calm Calm - N/A   Mostly Cloudy
6:54 PM 75.0 °F 66.9 °F 76% 30.17 in 10.0 mi Variable 3.5 mph - N/A   Overcast
7:54 PM 72.0 °F 66.0 °F 81% 30.17 in 10.0 mi SSE 4.6 mph - N/A   Scattered Clouds
8:54 PM 72.0 °F 66.9 °F 84% 30.19 in 10.0 mi Calm Calm - N/A   Mostly Cloudy
9:54 PM 71.1 °F 66.9 °F 87% 30.19 in 10.0 mi Calm Calm - N/A   Overcast
10:54 PM 71.1 °F 66.9 °F 87% 30.18 in 10.0 mi Calm Calm - N/A   Overcast
11:54 PM 71.1 °F 66.9 °F 87% 30.17 in 10.0 mi Calm Calm - N/A   Overcast